グレーラー彗星

P/2019 V2 ( Groeller )

English version
Home page
Updated on January 20, 2020

---------------------------------------------------------------------

・ プロフィール

発見日 2019年11月3日
発見光度 20.7等
発見者 Hannes Groeller (Mount Lemmon Survey)

・ 軌道要素

Epoch 2020 Nov. 7.0 TT = JDT 2459160.5
T 2020 Oct. 22.84027 TT                                 Williams
q   5.0165700            (2000.0)            P               Q
n   0.04785294     Peri.  336.35095     -0.96685360     -0.25324503
a   7.5138688      Node   189.16205     +0.25447576     -0.94530419
e   0.3323586      Incl.   11.80470     +0.02088567     -0.20558924
P  20.6
From 35 observations 2019 Nov. 3-2020 Jan. 5, mean residual 0".6.

・ 光度変化

        m1 = 9.5 + 5 logΔ + 10.0 log r

---------------------------------------------------------------------

軌道要素はM.P.E.C. 2020-A105に掲載されたものです。
光度グラフはComet for Windowsで作成したものです。

---------------------------------------------------------------------

Copyright(C) Seiichi Yoshida (comet@aerith.net). All rights reserved.